| time (UTC) | temp C | wind direction | speed KPH | gust KPH | rain 1hr cm | rain 24hr cm | rain mn cm | humidity % | barometer mb |
| 20260504050140 | 10 | 14 | 4.8 | 8.0 | 0.00 | 0.00 | 0.00 | 62 | 999.2 |
| 20260504044540 | 10 | 16 | 6.4 | 11.3 | 0.00 | 0.00 | 0.00 | 61 | 999.1 |
| 20260504043044 | 10 | 22 | 6.4 | 16.1 | 0.00 | 0.00 | 0.00 | 61 | 999.1 |
| 20260504041538 | 11 | 30 | 14.5 | 30.6 | 0.00 | 0.00 | 0.00 | 60 | 999.0 |
| 20260504040037 | 11 | 30 | 24.1 | 41.8 | 0.00 | 0.00 | 0.00 | 59 | 998.4 |
| 20260504034542 | 12 | 30 | 38.6 | 53.1 | 0.00 | 0.00 | 0.00 | 57 | 997.7 |
| 20260504033040 | 15 | 28 | 46.7 | 59.5 | 0.00 | 0.00 | 0.00 | 46 | 997.2 |
| 20260504031536 | 17 | 319 | 17.7 | 25.7 | 0.00 | 0.00 | 0.00 | 34 | 995.8 |
| 20260504030039 | 18 | 319 | 14.5 | 20.9 | 0.00 | 0.00 | 0.00 | 32 | 995.7 |
| 20260504024535 | 18 | 302 | 16.1 | 22.5 | 0.00 | 0.00 | 0.00 | 31 | 995.4 |
| 20260504023034 | 18 | 290 | 22.5 | 30.6 | 0.00 | 0.00 | 0.00 | 30 | 995.3 |
| 20260504021536 | 19 | 302 | 17.7 | 27.4 | 0.00 | 0.00 | 0.00 | 29 | 995.3 |
| 20260504020040 | 19 | 273 | 17.7 | 30.6 | 0.00 | 0.00 | 0.00 | 28 | 995.0 |
| 20260504014537 | 19 | 250 | 19.3 | 29.0 | 0.00 | 0.00 | 0.00 | 27 | 995.0 |
| 20260504013030 | 20 | 265 | 22.5 | 35.4 | 0.00 | 0.00 | 0.00 | 25 | 995.2 |
| 20260504011526 | 20 | 252 | 20.9 | 30.6 | 0.00 | 0.00 | 0.00 | 25 | 995.6 |
| 20260504010023 | 21 | 273 | 24.1 | 38.6 | 0.00 | 0.00 | 0.00 | 25 | 996.0 |
| 20260504004521 | 21 | 271 | 24.1 | 45.1 | 0.00 | 0.00 | 0.00 | 24 | 996.3 |
| 20260504003017 | 22 | 261 | 22.5 | 40.2 | 0.00 | 0.00 | 0.00 | 24 | 996.5 |
| 20260504001515 | 22 | 277 | 24.1 | 41.8 | 0.00 | 0.00 | 0.00 | 24 | 996.9 |
| 20260504000013 | 22 | 290 | 24.1 | 35.4 | 0.00 | 0.00 | 0.00 | 22 | 997.2 |
| 20260503234517 | 23 | 310 | 24.1 | 41.8 | 0.00 | 0.00 | 0.00 | 21 | 997.4 |
| 20260503233009 | 23 | 291 | 30.6 | 46.7 | 0.00 | 0.00 | 0.00 | 21 | 997.6 |
| 20260503231507 | 23 | 281 | 33.8 | 46.7 | 0.00 | 0.00 | 0.00 | 22 | 997.8 |
| 20260503230008 | 23 | 283 | 30.6 | 40.2 | 0.00 | 0.00 | 0.00 | 23 | 998.1 |
| 20260503224504 | 23 | 284 | 29.0 | 49.9 | 0.00 | 0.00 | 0.00 | 23 | 998.5 |
| 20260503223001 | 23 | 288 | 30.6 | 46.7 | 0.00 | 0.00 | 0.00 | 23 | 998.7 |
| 20260503221602 | 23 | 277 | 33.8 | 49.9 | 0.00 | 0.00 | 0.00 | 22 | 999.1 |
| 20260503220058 | 23 | 277 | 29.0 | 51.5 | 0.00 | 0.00 | 0.00 | 23 | 999.3 |
| 20260503214555 | 22 | 288 | 29.0 | 46.7 | 0.00 | 0.00 | 0.00 | 26 | 999.7 |
| 20260503213100 | 22 | 290 | 27.4 | 37.0 | 0.00 | 0.00 | 0.00 | 25 | 1000.1 |
| 20260503211609 | 22 | 292 | 33.8 | 46.7 | 0.00 | 0.00 | 0.00 | 26 | 1000.5 |
| 20260503210049 | 22 | 287 | 32.2 | 54.7 | 0.00 | 0.00 | 0.00 | 24 | 1000.9 |
| 20260503204544 | 23 | 279 | 35.4 | 54.7 | 0.00 | 0.00 | 0.00 | 24 | 1001.2 |
| 20260503203048 | 23 | 289 | 37.0 | 48.3 | 0.00 | 0.00 | 0.00 | 25 | 1001.5 |
| 20260503201540 | 23 | 283 | 32.2 | 46.7 | 0.00 | 0.00 | 0.00 | 25 | 1001.9 |
| 20260503200052 | 23 | 288 | 32.2 | 54.7 | 0.00 | 0.00 | 0.00 | 24 | 1002.3 |
| 20260503194534 | 22 | 296 | 38.6 | 49.9 | 0.00 | 0.00 | 0.00 | 25 | 1002.6 |
| 20260503193035 | 22 | 303 | 32.2 | 46.7 | 0.00 | 0.00 | 0.00 | 26 | 1003.1 |
| 20260503191528 | 22 | 286 | 30.6 | 45.1 | 0.00 | 0.00 | 0.00 | 26 | 1003.4 |
| 20260503190025 | 22 | 272 | 27.4 | 40.2 | 0.00 | 0.00 | 0.00 | 26 | 1003.8 |
| 20260503184526 | 21 | 287 | 29.0 | 43.5 | 0.00 | 0.00 | 0.00 | 26 | 1004.2 |
| 20260503183019 | 21 | 282 | 25.7 | 46.7 | 0.00 | 0.00 | 0.00 | 27 | 1004.6 |
| 20260503181517 | 21 | 286 | 22.5 | 49.9 | 0.00 | 0.00 | 0.00 | 27 | 1005.0 |
| 20260503180020 | 21 | 273 | 30.6 | 45.1 | 0.00 | 0.00 | 0.00 | 28 | 1005.3 |
| 20260503174516 | 20 | 275 | 24.1 | 41.8 | 0.00 | 0.00 | 0.00 | 27 | 1005.8 |
| 20260503173008 | 20 | 277 | 24.1 | 40.2 | 0.00 | 0.00 | 0.00 | 28 | 1006.2 |
| 20260503171505 | 20 | 282 | 24.1 | 41.8 | 0.00 | 0.00 | 0.00 | 28 | 1006.6 |
| 20260503130104 | 8 | 247 | 8.0 | 14.5 | 0.00 | 0.00 | 0.00 | 55 | 1010.0 |
| 20260503081536 | 3 | 37 | 0.0 | 0.0 | 0.00 | 0.00 | 0.00 | 62 | 1011.1 |
| 20260503071518 | 3 | 38 | 1.6 | 3.2 | 0.00 | 0.00 | 0.00 | 64 | 1011.2 |
| 20260503054509 | 6 | 26 | 8.0 | 12.9 | 0.00 | 0.00 | 0.00 | 56 | 1011.3 |
| 20260503053003 | 5 | 24 | 9.7 | 16.1 | 0.00 | 0.00 | 0.00 | 57 | 1011.3 |